Location: Casalecchio di Reno
(44.4760°N, 11.2757°E)
Time: 14:35:29
(UTC+02:00)

UWE-3 - Pass Details

Date: 20 June 2024
Orbit: 566 x 652 km, 97.8° (Epoch: 11 July)

Event Time Altitude Azimuth Distance (km) Brightness Sun altitude
Rises 04:23:35 0° 5° (N) 2,899 ? -9.8°
Reaches altitude 10° 04:25:54 10° 359° (N) 1,974 ? -9.5°
Maximum altitude 04:29:54 40° 290° (WNW) 892 ? -9.0°
Enters shadow 04:33:36 11° 221° (SW) 1,843 ? -8.5°
